Live-Position
3D-Globus wird geladen...
Über Starlink 3509
Group: 3 satellites
Beschreibung wird geladen...
Nächste Überflüge
Passes for default location (London). Set your location on the main map for personalized predictions.
Höhenverlauf
Loading altitude history...
No altitude history available
Zweizeiliger Elementsatz
1 51737U 22016Z 26123.56882776 .00000463 00000-0 47195-4 0 9990
2 51737 53.2175 72.7591 0001357 84.8624 275.2523 15.08838581231848
Epoch: 3. Mai 2026 •
Age: 11 hours
Aktueller Status
Höhe 546.8 km
Geschwindigkeit 7.59 km/s
Subsatellitenpunkt -23.24°S,
179.6°W
Startdatum 21. Feb. 2022
Alter 4.1 years
Typ internet
Startgruppe
Falcon 9 •
Group 4-8 •
43 satellites
Starlink 3528
51714
Starlink 3533 51715
Starlink 3543 51716
Starlink 3445 51717
Starlink 3546 51718
Starlink 3540 51719
Starlink 3526 51720
Starlink 3524 51721
Starlink 3535 51722
Starlink 3529 51724
Starlink 3522 51725
Starlink 3527 51726
Starlink 3532 51727
Starlink 3523 51729
Starlink 3514 51731
Starlink 3518 51732
Starlink 3525 51733
Starlink 3450 51734
Starlink 3517 51735
Starlink 3447 51736
...and 22 more
Technische Details
Klassifizierung Payload
Masse 297.00 kg
Trockenmasse 275.00 kg
Gesamtmasse 297.00 kg
Länge 0.20 m
Durchmesser 2.80 m
Spannweite 9.00 m
Form Box + pan
Hersteller SPXS
Bus-Typ Starlink
Phasenstatus In Orbit
Besitzer/Staat SPXS/US
Most Searched
Loading...